EW2887 Weather Reports


Display with metric or nautical units.
time (UTC)temp
F
wind
direction
speed
MPH
gust
MPH
rain 1hr
in
rain 24hr
in
rain mn
in
humidity
%
barometer
mb
20260510023019 78 82 2.0 4.0 0.00 0.00 0.00 18 1002.5
20260510021531 79 81 0.0 4.0 0.00 0.00 0.00 18 1002.1
20260510020018 80 82 4.0 7.0 0.00 0.00 0.00 17 1001.4
20260510014517 81 76 2.0 5.0 0.00 0.00 0.00 16 1001.2
20260510013017 83 85 6.0 8.0 0.00 0.00 0.00 16 1000.9
20260510011517 84 49 3.0 5.0 0.00 0.00 0.00 15 1000.8
20260510010016 85 48 2.0 6.0 0.00 0.00 0.00 15 1000.7
20260510004518 87 51 4.0 9.0 0.00 0.00 0.00 14 1000.6
20260510003015 88 19 2.0 7.0 0.00 0.00 0.00 13 1000.7
20260510001514 89 94 3.0 6.0 0.00 0.00 0.00 13 1000.8
20260510000017 90 335 3.0 5.0 0.00 0.00 0.00 12 1000.8
20260509234511 92 298 3.0 8.0 0.00 0.00 0.00 11 1001.1
20260509233009 91 321 7.0 11.0 0.00 0.00 0.00 12 1001.2
20260509231508 90 37 1.0 6.0 0.00 0.00 0.00 12 1001.4
20260509230007 91 360 7.0 13.0 0.00 0.00 0.00 11 1001.6
20260509224506 91 345 8.0 17.0 0.00 0.00 0.00 10 1001.6
20260509223003 92 293 9.0 16.0 0.00 0.00 0.00 12 1001.7
20260509221503 93 279 13.0 21.0 0.00 0.00 0.00 12 1001.8
20260509220003 92 300 9.0 29.0 0.00 0.00 0.00 12 1001.7
20260509214501 93 355 8.0 16.0 0.00 0.00 0.00 13 1001.9
20260509213101 93 242 11.0 20.0 0.00 0.00 0.00 12 1002.0
20260509211601 93 263 11.0 17.0 0.00 0.00 0.00 13 1002.4
20260509210114 92 306 12.0 20.0 0.00 0.00 0.00 13 1002.7
20260509204559 93 296 10.0 20.0 0.00 0.00 0.00 14 1002.8
20260509203050 93 284 11.0 20.0 0.00 0.00 0.00 14 1003.0
20260509201556 92 265 14.0 23.0 0.00 0.00 0.00 16 1003.2
20260509200058 92 321 9.0 17.0 0.00 0.00 0.00 17 1003.3
20260509194543 91 360 9.0 15.0 0.00 0.00 0.00 19 1003.6
20260509193043 87 278 10.0 18.0 0.00 0.00 0.00 21 1003.8
20260509191540 89 270 9.0 23.0 0.00 0.00 0.00 19 1004.2
20260509190041 90 304 8.0 19.0 0.00 0.00 0.00 19 1004.4
20260509184535 88 360 7.0 16.0 0.00 0.00 0.00 21 1004.7
20260509183032 85 360 15.0 20.0 0.00 0.00 0.00 22 1005.1
20260509181530 86 360 11.0 24.0 0.00 0.00 0.00 22 1005.2
20260509180026 83 244 17.0 25.0 0.00 0.00 0.00 24 1005.6
20260509174523 82 235 12.0 24.0 0.00 0.00 0.00 25 1005.6
20260509173020 81 189 11.0 19.0 0.00 0.00 0.00 27 1005.8
20260509171527 80 190 12.0 24.0 0.00 0.00 0.00 28 1006.1
20260509170025 80 194 15.0 22.0 0.00 0.00 0.00 29 1006.3
20260509164511 79 151 5.0 19.0 0.00 0.00 0.00 32 1006.5
20260509163011 78 148 11.0 22.0 0.00 0.00 0.00 33 1006.6
20260509161505 76 170 13.0 19.0 0.00 0.00 0.00 35 1006.9
20260509160002 75 204 15.0 19.0 0.00 0.00 0.00 39 1007.2
20260509154601 74 151 8.0 17.0 0.00 0.00 0.00 40 1007.3
20260509153100 73 200 5.0 17.0 0.00 0.00 0.00 40 1007.6
20260509151600 73 133 9.0 16.0 0.00 0.00 0.00 39 1007.6
20260509150055 72 123 7.0 14.0 0.00 0.00 0.00 43 1007.9
20260509144552 73 107 2.0 8.0 0.00 0.00 0.00 44 1008.0
20260509143049 71 355 2.0 4.0 0.00 0.00 0.00 45 1008.2
20260509141547 70 355 1.0 5.0 0.00 0.00 0.00 45 1008.4
20260509140058 70 311 3.0 5.0 0.00 0.00 0.00 45 1008.6
20260509134602 67 316 3.0 5.0 0.00 0.00 0.00 51 1008.7
20260509133039 65 315 0.0 2.0 0.00 0.00 0.00 51 1008.6
20260509131548 63 315 0.0 2.0 0.00 0.00 0.00 52 1008.7
20260509130040 59 342 2.0 4.0 0.00 0.00 0.00 56 1008.8
20260509124536 56 186 0.0 3.0 0.00 0.00 0.00 60 1008.5
20260509123035 55 186 3.0 7.0 0.00 0.00 0.00 60 1008.4
20260509121536 54 188 4.0 7.0 0.00 0.00 0.00 59 1008.3
20260509120036 53 205 6.0 10.0 0.00 0.00 0.00 57 1008.3
20260509114538 53 207 7.0 9.0 0.00 0.00 0.00 56 1008.2
20260509113031 54 195 7.0 9.0 0.00 0.00 0.00 55 1008.3
20260509111528 55 201 6.0 11.0 0.00 0.00 0.00 54 1008.3
20260509110025 55 168 7.0 10.0 0.00 0.00 0.00 55 1008.3
20260509104523 55 176 7.0 10.0 0.00 0.00 0.00 55 1008.4
20260509103019 56 166 5.0 10.0 0.00 0.00 0.00 53 1008.4
20260509101528 58 138 3.0 9.0 0.00 0.00 0.00 52 1008.5
20260509100021 58 132 5.0 12.0 0.00 0.00 0.00 51 1008.6
20260509094515 58 125 5.0 10.0 0.00 0.00 0.00 49 1008.8
20260509093010 59 135 7.0 14.0 0.00 0.00 0.00 49 1008.7
20260509091508 59 360 9.0 13.0 0.00 0.00 0.00 47 1008.4
20260509090006 59 115 8.0 15.0 0.00 0.00 0.00 46 1008.3
20260509084508 60 129 10.0 18.0 0.00 0.00 0.00 46 1008.4
20260509083001 59 360 9.0 13.0 0.00 0.00 0.00 46 1008.4
20260509081559 59 360 6.0 13.0 0.00 0.00 0.00 46 1008.3
20260509080056 60 360 10.0 16.0 0.00 0.00 0.00 44 1008.4
20260509074602 62 360 10.0 19.0 0.00 0.00 0.00 42 1008.5
20260509073048 63 77 7.0 16.0 0.00 0.00 0.00 40 1008.4
20260509071547 63 90 8.0 15.0 0.00 0.00 0.00 41 1008.4
20260509070045 62 81 7.0 11.0 0.00 0.00 0.00 41 1008.4
20260509064557 62 80 8.0 11.0 0.00 0.00 0.00 42 1008.2
20260509063044 62 79 4.0 8.0 0.00 0.00 0.00 41 1008.3
20260509061542 63 83 5.0 8.0 0.00 0.00 0.00 40 1008.3
20260509060037 64 84 6.0 8.0 0.00 0.00 0.00 39 1008.4
20260509054535 64 100 1.0 5.0 0.00 0.00 0.00 39 1008.5
20260509053029 65 101 3.0 7.0 0.00 0.00 0.00 38 1008.5
20260509051534 65 98 5.0 8.0 0.00 0.00 0.00 37 1008.4
20260509050025 66 114 6.0 11.0 0.00 0.00 0.00 37 1008.5
20260509044523 66 109 5.0 10.0 0.00 0.00 0.00 36 1008.5
20260509043024 66 89 5.0 9.0 0.00 0.00 0.00 35 1008.4
20260509041523 66 105 3.0 5.0 0.00 0.00 0.00 35 1008.5
20260509040022 67 106 3.0 7.0 0.00 0.00 0.00 34 1008.4
20260509034538 68 107 3.0 8.0 0.00 0.00 0.00 33 1008.2
20260509033023 69 96 6.0 8.0 0.00 0.00 0.00 32 1008.1
20260509031523 69 96 5.0 7.0 0.00 0.00 0.00 32 1008.0
20260509030023 69 92 3.0 5.0 0.00 0.00 0.00 31 1007.7
20260509024521 70 92 5.0 7.0 0.00 0.00 0.00 31 1007.6